TimeMST,TemperatureF,Dew PointF,Humidity,Sea Level PressureIn,VisibilityMPH,Wind Direction,Wind SpeedMPH,Gust SpeedMPH,PrecipitationIn,Events,Conditions,WindDirDegrees,DateUTC
12:53 AM,24.1,17.1,75,30.24,10.0,Calm,Calm,-,N/A,,Clear,0,2014-01-17 07:53:00
1:53 AM,27.0,18.0,69,30.21,10.0,Calm,Calm,-,N/A,,Overcast,0,2014-01-17 08:53:00
2:53 AM,28.9,19.0,67,30.19,10.0,WSW,16.1,-,N/A,,Overcast,250,2014-01-17 09:53:00
3:53 AM,30.9,19.0,61,30.18,10.0,West,13.8,-,N/A,,Overcast,260,2014-01-17 10:53:00
4:53 AM,30.0,18.0,61,30.17,10.0,WSW,13.8,-,N/A,,Mostly Cloudy,250,2014-01-17 11:53:00
5:53 AM,32.0,19.0,59,30.17,10.0,West,15.0,-,N/A,,Overcast,260,2014-01-17 12:53:00
6:53 AM,34.0,18.0,52,30.14,10.0,West,15.0,-,N/A,,Overcast,270,2014-01-17 13:53:00
7:53 AM,34.0,18.0,52,30.12,10.0,West,13.8,-,N/A,,Overcast,270,2014-01-17 14:53:00
8:53 AM,35.1,18.0,50,30.12,10.0,West,15.0,-,N/A,,Clear,270,2014-01-17 15:53:00
9:53 AM,37.0,19.0,48,30.11,10.0,WSW,13.8,-,N/A,,Clear,250,2014-01-17 16:53:00
10:53 AM,42.1,19.0,40,30.08,10.0,WSW,13.8,-,N/A,,Clear,250,2014-01-17 17:53:00
11:53 AM,42.1,21.0,43,30.05,10.0,WSW,12.7,-,N/A,,Clear,240,2014-01-17 18:53:00
12:53 PM,44.1,23.0,43,30.04,10.0,West,10.4,-,N/A,,Clear,260,2014-01-17 19:53:00
1:53 PM,44.1,19.9,38,30.01,10.0,WNW,18.4,-,N/A,,Clear,290,2014-01-17 20:53:00
2:53 PM,44.1,21.0,40,30.00,10.0,WNW,17.3,-,N/A,,Clear,300,2014-01-17 21:53:00
3:53 PM,42.1,23.0,47,30.02,10.0,WNW,13.8,-,N/A,,Clear,290,2014-01-17 22:53:00
4:53 PM,39.0,23.0,53,30.04,10.0,WNW,16.1,-,N/A,,Clear,290,2014-01-17 23:53:00
5:53 PM,39.0,21.9,50,30.04,10.0,WNW,19.6,-,N/A,,Clear,300,2014-01-18 00:53:00
6:53 PM,37.9,21.9,53,30.04,10.0,WNW,17.3,-,N/A,,Clear,290,2014-01-18 01:53:00
7:53 PM,39.0,21.9,50,30.04,10.0,WNW,19.6,27.6,N/A,,Clear,290,2014-01-18 02:53:00
8:53 PM,37.9,21.9,53,30.04,10.0,WNW,17.3,-,N/A,,Clear,300,2014-01-18 03:53:00
9:53 PM,37.0,21.9,54,30.06,10.0,WNW,17.3,-,N/A,,Clear,300,2014-01-18 04:53:00
10:53 PM,37.9,23.0,55,30.05,10.0,NW,21.9,28.8,N/A,,Clear,310,2014-01-18 05:53:00
11:53 PM,37.0,23.0,57,30.05,10.0,NW,21.9,28.8,N/A,,Clear,310,2014-01-18 06:53:00